8,
Avoca, PA
on Wednesday, February 6, 2013

Wednesday
Previous Day Next Day
Daily Summary
 ActualAverageRecord
Temperature
Mean Temperature °F 27°F  
Max Temperature 35°F 35°F 57°F (1938)
Min Temperature 21°F 19°F -9°F (1906)
Degree Days
Heating Degree Days 37 38  
Month to date heating degree days 252 229  
Since 1 July heating degree days 3469 3820  
Cooling Degree Days 0 0  
Month to date cooling degree days 0 0  
Year to date cooling degree days 0 0  
Moisture
Dew Point 19°F   
Average Humidity 65    
Maximum Humidity 92    
Minimum Humidity 38    
Precipitation
Precipitation 0.00 in 0.08 in 1.03 in (2008)
Month to date precipitation 0.05 0.47  
Year to date precipitation 2.07 2.84  
Wind
Wind Speed 8 mph   
Max Wind Speed 21 mph   
Max Gust Speed 25 mph   
Visibility 7 miles   
Events     

Key: T is trace of precipitation, MM is missing value
Source: NWS Daily Summary
Time(EST)TemperatureDew PointHumidity Pressure Visibility Wind DirectionWind SpeedGust SpeedPrecipitationEvents Conditions
12:20 AM 28.4°F 24.8°F 86% 29.87 in 4.0 miles WSW 4.6 mph - N/A   Overcast
12:41 AM 28.4°F 24.8°F 86% 29.87 in 4.0 miles West 3.5 mph - N/A   Overcast
12:54 AM 28.0°F 26.1°F 92% 29.90 in 4.0 miles SW 4.6 mph - N/A   Overcast
1:16 AM 28.4°F 24.8°F 86% 29.87 in 4.0 miles SW 5.8 mph - N/A   Mostly Cloudy
1:54 AM 27.0°F 25.0°F 92% 29.89 in 3.0 miles SW 4.6 mph - N/A   Clear
2:33 AM 26.6°F 24.8°F 93% 29.87 in 3.0 miles SW 3.5 mph - N/A   Mostly Cloudy
2:47 AM 26.6°F 24.8°F 93% 29.87 in 3.0 miles SSW 3.5 mph - N/A   Scattered Clouds
2:54 AM 26.6°F 24.8°F 93% 29.88 in 3.0 miles Calm Calm - N/A   Scattered Clouds
3:02 AM 26.6°F 24.8°F 93% 29.88 in 2.5 miles SSW 3.5 mph - N/A   Scattered Clouds
3:06 AM 26.6°F 24.8°F 93% 29.88 in 2.5 miles SSW 3.5 mph - N/A   Mostly Cloudy
3:27 AM 26.6°F 23.0°F 86% 29.89 in 3.0 miles SW 3.5 mph - N/A   Mostly Cloudy
3:40 AM 24.8°F 23.0°F 93% 29.90 in 3.0 miles Calm Calm - N/A   Mostly Cloudy
3:54 AM 26.1°F 23.0°F 88% 29.93 in 3.0 miles SSW 4.6 mph - N/A   Mostly Cloudy
4:07 AM 26.6°F 24.8°F 93% 29.91 in 4.0 miles SSW 4.6 mph - N/A   Overcast
4:54 AM 26.1°F 23.0°F 88% 29.96 in 4.0 miles SW 5.8 mph - N/A   Overcast
5:54 AM 26.1°F 21.0°F 81% 29.98 in 7.0 miles SW 5.8 mph - N/A   Overcast
6:54 AM 26.1°F 21.9°F 84% 30.02 in 6.0 miles WSW 9.2 mph - N/A   Overcast
7:54 AM 27.0°F 21.0°F 78% 30.04 in 6.0 miles SW 6.9 mph - N/A   Haze
8:54 AM 27.0°F 21.0°F 78% 30.07 in 6.0 miles WSW 8.1 mph - N/A   Haze
9:54 AM 28.0°F 21.0°F 75% 30.10 in 7.0 miles WSW 10.4 mph - N/A   Overcast
10:54 AM 30.0°F 21.9°F 72% 30.10 in 7.0 miles WSW 10.4 mph - N/A   Overcast
11:54 AM 32.0°F 21.0°F 64% 30.12 in 10.0 miles WNW 8.1 mph 18.4 mph N/A   Overcast
1:54 PM 33.1°F 16.0°F 50% 30.14 in 10.0 miles NNW 18.4 mph 24.2 mph N/A   Mostly Cloudy
2:54 PM 34.0°F 14.0°F 44% 30.16 in 10.0 miles NNW 16.1 mph 23.0 mph N/A   Scattered Clouds
3:54 PM 33.1°F 10.9°F 40% 30.19 in 10.0 miles NW 11.5 mph - N/A   Clear
4:54 PM 30.9°F 10.0°F 42% 30.22 in 10.0 miles WNW 12.7 mph - N/A   Clear
5:54 PM 28.9°F 10.9°F 47% 30.25 in 10.0 miles NW 6.9 mph - N/A   Clear
6:54 PM 27.0°F 10.9°F 51% 30.28 in 10.0 miles NNW 4.6 mph - N/A   Clear
7:54 PM 25.0°F 10.9°F 55% 30.30 in 10.0 miles North 5.8 mph - N/A   Clear
8:54 PM 25.0°F 10.9°F 55% 30.32 in 10.0 miles NNE 5.8 mph - N/A   Clear
9:54 PM 24.1°F 10.0°F 55% 30.34 in 10.0 miles ENE 4.6 mph - N/A   Clear
10:54 PM 21.9°F 10.9°F 63% 30.35 in 10.0 miles NE 5.8 mph - N/A   Clear
11:54 PM 21.9°F 10.0°F 60% 30.34 in 10.0 miles Calm Calm - N/A   Clear
Astronomy
Sunrise:07:08 AM (EST) Moon Rise:03:51 AM (EST)2/6
Sunset:05:25 PM (EST) Moon Set:01:40 PM (EST)2/6
Moon Phase
Feb. 06 Feb. 10 Feb. 17 Feb. 25 Mar. 04

Copyright © 2014 The Weather Underground, Inc.
8,